Location: Casteau
(50.5142°N, 4.0161°E)
Time: 23:10:17
(UTC+00:00)

S-56A Canister/Altair - Pass Details

Date: 07 August 2021
Orbit: 632 x 2500 km, 38.9° (Epoch: 19 September)

Event Time Altitude Azimuth Distance (km) Brightness Sun altitude
Rises 15:54:49 0° 263° (W) 5,501 13.1 30.6°
Reaches altitude 10° 15:58:16 10° 259° (WSW) 4,694 13.2 30.1°
Maximum altitude 16:11:15 50° 190° (S) 2,964 11.1 28.0°
Drops below altitude 10° 16:25:16 10° 122° (ESE) 5,036 11.3 25.8°
Sets 16:29:07 0° 117° (ESE) 5,916 11.6 25.2°
